Wind_Speed
19 16 18 19 20 16 15 16 17 15 15 18 16 12 15 12 14 11 12 18 22 20 24 24 41 42 38 34 31 34 31 30 30 30 29 28 27 26 24 23 22 21 20 19
25 21 20 22 22 18 17 17 18 18 15 18 17 12 14 12 15 10 9 13 14 19 22 26 33 41 40 39 37 34 33 32 32 33 31 29 29 28 27 26 26 25 23 23
25 20 22 22 20 20 19 18 18 19 18 19 18 14 13 14 15 12 11 10 17 13 10 20 30 38 40 44 42 39 38 37 32 36 33 32 32 32 32 32 31 29 27 27
27 24 22 16 19 23 22 20 17 17 18 19 17 15 13 13 15 17 14 15 13 7 11 11 18 27 42 43 43 42 39 35 33 34 36 35 35 35 34 35 34 32 31 30
28 22 14 11 17 22 23 21 20 17 18 19 20 20 18 20 20 20 20 18 18 12 11 12 15 23 21 36 39 43 42 41 39 39 40 38 39 39 37 38 37 37 35 35
24 20 14 12 13 16 20 20 19 17 19 21 22 22 20 18 19 19 21 23 21 21 14 16 14 16 17 22 28 31 43 42 42 47 42 43 39 45 41 41 42 41 39 39
25 27 15 14 18 15 16 16 15 18 22 23 24 22 21 22 20 19 19 20 22 22 21 19 19 18 18 17 20 21 43 46 50 51 53 47 47 45 46 46 46 48 49 47
30 27 18 17 17 16 17 14 12 15 18 21 22 23 25 24 19 19 17 17 19 22 26 24 24 24 23 22 17 19 20 27 22 28 39 50 48 49 54 49 51 42 39 44
33 25 20 21 21 17 16 18 16 16 20 24 26 27 24 22 17 13 11 12 15 17 22 27 28 30 29 25 23 22 22 23 21 26 26 25 28 35 39 42 49 44 42 46
31 27 28 25 24 24 23 24 23 20 20 22 24 23 22 18 16 17 17 18 21 22 22 24 28 32 32 32 28 26 26 27 28 21 22 23 28 34 35 33 34 31 33 29
36 30 32 25 21 20 19 21 24 24 24 24 22 22 21 20 20 21 24 26 24 25 26 27 30 31 32 32 32 28 29 27 26 24 18 18 27 30 30 35 35 36 39 50
20 28 21 22 22 18 20 18 22 23 26 22 21 21 21 23 25 28 32 34 35 32 31 31 33 33 34 35 34 32 29 28 24 20 27 22 17 23 25 21 28 34 38 43
24 25 26 20 18 21 22 23 24 23 20 21 21 22 25 28 32 36 37 39 43 42 35 31 35 34 36 38 34 36 36 31 27 20 16 15 16 11 12 16 18 17 15 17
34 26 31 32 27 24 25 23 23 20 18 18 19 23 28 32 35 38 40 39 41 38 36 32 32 35 36 36 34 36 41 38 35 35 23 21 18 18 17 13 12 15 16 16
23 27 18 22 23 19 19 20 21 20 19 19 23 28 31 33 28 27 29 30 30 31 30 28 29 32 33 35 34 33 36 37 33 34 33 27 24 24 22 22 21 19 19 19
24 20 19 19 21 16 15 22 26 21 19 22 25 26 21 17 17 17 20 18 18 24 24 23 26 30 30 32 32 37 35 33 34 35 34 34 32 28 26 29 26 23 24 23
28 26 21 18 20 18 15 14 15 16 15 15 15 15 14 15 16 17 15 17 13 16 20 23 25 28 31 26 25 27 30 31 32 33 33 33 34 33 32 36 33 28 29 28
41 38 29 26 22 18 17 15 15 14 13 13 12 9 11 14 16 17 17 15 12 6 7 10 16 12 14 17 18 20 21 23 25 26 27 27 29 32 33 29 27 30 32 27
24 28 26 23 22 17 17 14 11 11 12 12 11 11 10 11 13 16 17 17 15 9 9 11 13 14 14 14 15 17 17 16 18 22 23 24 24 24 23 24 25 26 25 25
21 26 28 26 23 23 18 11 8 5 8 9 10 8 8 10 12 12 10 9 12 15 14 14 14 14 14 12 13 15 15 15 15 16 18 20 22 23 23 24 24 23 22 20
17 22 25 27 28 22 16 9 6 3 3 2 4 5 6 8 9 9 10 8 5 7 8 8 7 9 10 13 14 14 13 11 12 15 16 17 18 17 18 19 17 15 15 17
20 21 26 27 23 19 14 13 10 8 5 2 3 5 7 7 6 6 8 7 5 6 7 6 4 7 7 6 6 6 6 8 8 9 8 7 15 10 10 11 13 14 15 16
22 26 27 25 22 18 15 13 11 10 7 6 4 3 3 3 5 4 2 1 2 5 6 10 8 6 6 7 8 8 8 8 10 10 9 10 10 13 16 16 17 17 18 19
20 26 26 24 21 18 18 15 13 12 11 9 8 6 5 4 3 4 5 5 6 6 6 7 7 6 6 6 7 7 8 9 9 10 11 12 13 14 15 15 15 15 16 16
23 28 28 25 22 21 19 15 15 15 14 14 13 12 10 10 9 8 7 6 8 10 11 12 10 9 8 6 7 8 9 10 11 11 12 12 11 10 11 13 13 14 15 16
22 29 31 29 26 24 22 19 19 17 18 18 17 17 17 16 15 14 12 12 13 15 17 17 16 14 13 12 12 12 13 13 14 15 15 14 15 16 17 17 17 19 21 22
18 26 31 32 29 28 26 25 25 24 23 22 23 23 22 20 19 19 19 18 19 19 20 22 22 22 22 22 21 21 20 19 19 21 21 20 20 21 21 16 17 16 20 24
Wind_Direction
268 267 268 261 266 272 265 265 276 280 289 284 290 276 276 280 291 298 269 255 249 256 250 238 229 230 231 229 225 221 219 219 219 219 222 231 237 232 228 229 234 237 234 233
276 270 262 259 262 266 267 269 275 277 278 280 287 266 268 268 276 283 268 254 251 253 258 237 237 232 234 229 229 225 222 220 225 225 223 226 232 236 234 234 233 237 239 236
271 263 255 258 263 265 266 268 270 273 263 273 277 261 261 263 265 265 266 273 244 254 256 253 248 231 236 237 233 232 226 223 226 227 227 226 229 233 234 233 234 237 237 237
265 268 261 260 261 263 266 270 268 262 259 262 258 267 258 258 261 267 276 275 280 263 287 284 254 238 234 233 235 235 234 227 226 228 230 229 229 233 236 238 237 234 237 239
260 258 250 264 265 263 265 267 267 254 259 255 253 261 263 273 266 263 268 270 265 256 251 267 286 253 250 226 239 238 231 234 234 236 229 229 233 233 232 238 240 239 235 237
251 242 254 270 282 269 262 265 266 259 258 256 256 265 270 270 266 261 257 260 258 251 251 251 254 279 268 256 247 243 226 231 242 237 232 233 238 233 243 242 240 242 243 241
239 244 256 274 272 274 277 272 262 257 256 260 263 264 263 267 268 267 261 261 254 247 250 251 241 245 268 267 248 244 230 229 241 238 241 240 246 242 245 246 252 260 247 237
235 241 255 263 269 276 275 268 262 255 256 258 260 260 262 266 270 266 263 261 256 253 248 250 244 240 239 252 249 247 239 223 226 238 245 246 250 257 253 251 253 259 254 263
238 240 243 249 255 267 272 261 260 256 249 250 252 255 261 268 263 247 261 276 274 268 261 253 249 244 242 245 252 255 248 234 238 240 237 224 237 245 242 251 246 249 254 251
229 229 239 241 257 267 257 256 255 256 259 266 268 265 260 254 250 253 261 270 278 275 275 268 257 247 238 243 239 239 245 245 241 247 241 239 232 238 233 233 230 233 239 229
243 238 237 241 249 254 261 258 243 249 254 268 266 258 257 258 260 271 281 282 280 274 271 263 255 251 245 234 238 238 239 233 229 236 247 246 227 240 238 245 243 251 246 249
228 228 232 241 247 258 266 275 242 246 255 259 250 251 259 270 276 277 277 279 280 276 274 268 252 245 244 241 230 234 237 236 234 239 243 229 217 225 229 239 244 248 251 250
242 240 230 236 252 263 270 273 251 255 253 251 252 259 265 271 274 279 281 282 283 281 272 260 249 245 242 238 232 230 232 233 232 236 237 237 219 210 243 245 244 252 245 254
227 231 236 255 258 255 260 256 247 238 252 259 268 274 277 284 285 286 287 284 277 268 259 252 247 244 241 239 234 231 231 234 233 233 241 246 252 251 249 254 260 266 270 266
232 235 235 242 245 251 254 240 232 249 269 270 276 281 285 288 288 290 289 288 276 252 254 252 244 245 247 232 230 237 236 236 240 248 249 250 258 256 259 261 261 260 270 275
214 223 227 234 228 229 265 245 237 260 268 278 284 284 284 285 291 305 309 300 283 252 242 238 241 238 241 238 235 237 240 239 241 243 246 245 241 240 250 261 249 262 265 263
227 228 228 237 236 237 246 241 236 253 270 284 284 277 286 292 298 302 313 316 299 260 251 245 241 236 233 229 241 244 246 247 249 251 253 253 255 259 254 259 266 269 259 261
238 236 235 232 236 231 239 231 245 264 265 280 278 273 288 291 291 286 290 293 290 270 276 261 239 232 242 243 243 241 243 244 247 250 253 255 259 260 259 259 261 264 272 265
227 225 227 228 225 221 227 238 262 270 261 261 264 281 289 288 289 290 287 282 269 259 243 242 243 242 238 247 246 237 234 240 244 243 243 242 243 246 246 246 247 245 244 251
219 220 225 225 211 212 220 233 252 273 286 279 272 259 275 288 296 288 281 278 256 243 248 251 249 245 245 243 245 241 246 256 253 245 239 239 242 242 242 249 252 251 247 242
210 206 202 193 186 194 205 209 202 227 262 271 243 241 281 300 300 300 288 282 228 231 248 250 237 231 230 234 236 243 242 238 235 237 247 249 245 246 242 238 237 238 235 237
206 195 178 173 182 193 200 210 215 229 237 241 248 253 262 251 267 298 296 288 231 207 210 207 207 226 202 185 189 206 214 219 238 257 266 251 240 238 232 245 253 255 255 256
195 189 183 183 188 196 213 214 215 229 231 234 240 255 293 290 278 268 204 65 194 200 191 201 204 191 203 222 238 242 235 237 245 242 241 252 246 238 240 244 249 253 256 256
196 194 192 193 194 199 212 212 217 230 239 246 246 245 256 258 255 262 239 228 229 237 216 201 204 211 215 219 223 229 236 241 242 241 240 239 243 247 249 251 254 258 258 258
205 204 206 205 205 211 212 215 220 233 248 258 263 262 256 253 255 249 249 239 226 216 208 206 210 213 218 222 225 226 231 239 240 236 244 255 253 257 256 254 256 260 266 266
222 218 214 214 215 220 224 224 227 232 245 254 259 261 264 261 258 256 252 244 240 235 229 227 230 237 245 251 259 263 263 263 261 260 262 261 259 262 265 269 271 272 273 273
233 227 223 221 224 228 232 238 243 244 244 252 260 263 263 264 267 264 260 256 253 250 248 249 251 253 257 261 265 268 269 267 268 270 268 268 266 267 259 262 272 271 289 284
Height
5837 5838 5838 5839 5840 5841 5841 5841 5842 5842 5841 5838 5839 5839 5838 5838 5838 5838 5839 5839 5840 5842 5845 5850 5853 5856 5860 5865 5869 5872 5875 5879 5882 5883 5886 5891 5894 5896 5898 5901 5903 5905 5906 5908
5830 5832 5832 5833 5834 5835 5836 5836 5837 5836 5837 5834 5834 5835 5835 5834 5834 5835 5835 5835 5836 5837 5839 5842 5846 5849 5853 5857 5861 5865 5869 5871 5875 5879 5881 5884 5887 5891 5893 5895 5897 5899 5902 5904
5824 5825 5825 5828 5828 5829 5830 5831 5832 5832 5831 5830 5829 5830 5832 5832 5832 5831 5832 5831 5831 5831 5833 5834 5838 5840 5842 5848 5853 5857 5862 5865 5868 5872 5875 5878 5880 5883 5886 5888 5890 5893 5895 5898
5817 5818 5820 5822 5822 5822 5824 5825 5826 5825 5825 5825 5824 5826 5828 5829 5829 5828 5828 5827 5827 5827 5827 5829 5831 5833 5835 5838 5844 5849 5854 5858 5861 5864 5867 5870 5872 5876 5879 5882 5884 5885 5888 5891
5809 5812 5815 5815 5816 5816 5817 5819 5819 5820 5820 5821 5820 5821 5823 5824 5824 5824 5823 5823 5823 5822 5823 5824 5825 5826 5827 5830 5834 5838 5843 5847 5850 5855 5857 5861 5863 5866 5869 5873 5876 5878 5879 5882
5803 5805 5807 5810 5810 5811 5811 5812 5812 5814 5815 5815 5815 5817 5817 5817 5817 5816 5817 5817 5818 5817 5817 5819 5819 5821 5822 5824 5826 5828 5834 5838 5840 5846 5850 5853 5855 5856 5861 5863 5867 5869 5871 5873
5795 5798 5802 5803 5803 5805 5807 5808 5806 5807 5808 5809 5810 5811 5810 5810 5810 5810 5810 5811 5811 5811 5811 5813 5815 5815 5816 5817 5819 5821 5825 5828 5833 5835 5838 5842 5845 5848 5851 5853 5855 5857 5859 5861
5788 5791 5796 5797 5797 5800 5801 5799 5799 5801 5802 5802 5803 5803 5803 5804 5805 5804 5805 5804 5804 5804 5806 5806 5807 5810 5812 5813 5814 5815 5819 5819 5822 5824 5827 5830 5834 5837 5839 5842 5846 5845 5847 5848
5781 5786 5788 5790 5791 5794 5794 5794 5794 5794 5795 5794 5794 5795 5798 5798 5799 5799 5799 5799 5799 5800 5799 5800 5801 5803 5806 5807 5809 5811 5814 5814 5816 5818 5820 5821 5821 5825 5825 5829 5833 5835 5835 5836
5772 5777 5781 5782 5784 5786 5787 5787 5788 5787 5788 5789 5789 5789 5790 5792 5792 5793 5794 5794 5793 5793 5793 5793 5795 5797 5797 5801 5802 5804 5807 5809 5808 5810 5812 5812 5813 5815 5817 5819 5822 5823 5826 5826
5763 5769 5773 5775 5777 5778 5779 5779 5780 5781 5781 5781 5782 5782 5783 5784 5785 5786 5786 5786 5786 5785 5785 5786 5786 5788 5790 5792 5795 5796 5799 5802 5803 5805 5805 5805 5806 5806 5809 5811 5813 5816 5818 5819
5756 5761 5763 5767 5769 5771 5771 5771 5772 5774 5774 5775 5776 5776 5777 5777 5777 5777 5778 5776 5775 5777 5777 5776 5776 5777 5780 5784 5786 5790 5792 5794 5796 5797 5797 5798 5799 5800 5801 5802 5804 5806 5807 5807
5748 5753 5757 5760 5762 5764 5764 5763 5765 5767 5768 5768 5770 5770 5771 5770 5769 5768 5766 5765 5762 5762 5763 5765 5765 5766 5769 5773 5776 5780 5783 5786 5789 5789 5790 5790 5791 5792 5794 5796 5797 5799 5800 5801
5740 5745 5750 5753 5754 5756 5756 5756 5758 5760 5762 5762 5763 5763 5762 5760 5758 5756 5753 5751 5748 5747 5749 5751 5753 5756 5759 5763 5766 5769 5773 5776 5778 5779 5782 5783 5785 5788 5790 5792 5793 5794 5795 5796
5734 5739 5741 5744 5747 5749 5750 5750 5753 5755 5755 5756 5756 5754 5752 5750 5748 5745 5742 5739 5735 5736 5740 5744 5747 5749 5752 5757 5760 5762 5764 5767 5770 5772 5774 5777 5780 5782 5784 5786 5788 5788 5790 5791
5726 5731 5734 5737 5740 5743 5744 5744 5747 5749 5749 5749 5747 5745 5743 5743 5741 5739 5734 5731 5729 5729 5732 5735 5739 5741 5744 5748 5752 5755 5758 5761 5763 5765 5767 5770 5772 5775 5777 5778 5780 5782 5784 5785
5719 5724 5728 5732 5736 5738 5739 5740 5742 5743 5743 5742 5740 5739 5739 5738 5736 5734 5732 5729 5726 5726 5728 5729 5732 5734 5737 5740 5743 5746 5749 5752 5755 5757 5759 5762 5764 5766 5768 5770 5772 5774 5776 5777
5711 5715 5721 5726 5730 5733 5734 5735 5737 5737 5737 5736 5736 5735 5734 5733 5731 5730 5728 5727 5727 5725 5725 5726 5727 5731 5734 5736 5738 5740 5742 5744 5746 5748 5750 5752 5755 5758 5760 5762 5764 5766 5767 5769
5704 5710 5715 5720 5724 5728 5730 5731 5732 5732 5732 5732 5732 5731 5731 5729 5727 5726 5724 5723 5723 5724 5724 5724 5726 5727 5729 5731 5732 5734 5736 5738 5739 5741 5743 5745 5747 5749 5751 5753 5755 5756 5758 5760
5699 5703 5706 5712 5717 5722 5725 5727 5728 5728 5729 5728 5728 5728 5727 5726 5724 5722 5720 5719 5719 5720 5720 5721 5723 5724 5725 5727 5729 5731 5733 5733 5734 5735 5737 5740 5741 5742 5744 5746 5747 5748 5749 5750
5693 5696 5699 5705 5711 5717 5721 5724 5725 5726 5726 5726 5725 5726 5725 5723 5721 5720 5719 5717 5716 5717 5719 5719 5720 5720 5721 5723 5725 5726 5727 5729 5730 5732 5734 5735 5736 5737 5738 5740 5742 5742 5743 5745
5691 5695 5698 5703 5709 5713 5717 5720 5722 5723 5724 5724 5723 5723 5722 5722 5721 5720 5718 5716 5715 5716 5717 5718 5718 5718 5719 5720 5721 5723 5724 5725 5727 5729 5730 5730 5731 5733 5734 5735 5737 5737 5738 5739
5690 5693 5697 5701 5705 5710 5714 5717 5719 5720 5721 5721 5721 5721 5721 5720 5718 5718 5718 5716 5715 5717 5717 5719 5719 5719 5720 5720 5721 5722 5723 5724 5725 5726 5727 5727 5728 5729 5731 5731 5731 5732 5732 5733
5688 5692 5695 5699 5702 5706 5709 5712 5714 5716 5718 5718 5719 5719 5718 5718 5718 5717 5717 5716 5716 5717 5717 5717 5718 5719 5720 5720 5721 5721 5722 5723 5723 5724 5725 5725 5725 5726 5726 5727 5727 5728 5728 5729
5685 5688 5692 5696 5699 5702 5705 5708 5710 5712 5713 5714 5714 5715 5715 5715 5716 5716 5715 5715 5715 5715 5716 5717 5718 5719 5719 5720 5720 5720 5720 5721 5721 5722 5722 5722 5723 5723 5723 5722 5722 5722 5721 5722
5682 5685 5688 5692 5695 5698 5700 5703 5705 5706 5707 5708 5709 5710 5710 5711 5711 5712 5712 5713 5713 5714 5714 5714 5715 5715 5716 5716 5716 5716 5717 5717 5717 5716 5717 5717 5717 5718 5718 5718 5717 5717 5716 5716
5677 5679 5683 5686 5689 5692 5694 5696 5698 5699 5701 5702 5703 5704 5705 5706 5706 5706 5706 5707 5707 5708 5709 5709 5710 5710 5710 5710 5710 5710 5711 5711 5711 5711 5711 5711 5711 5711 5711 5711 5711 5711 5711 5709